Location: Asheville, NC
(35.6000°N, 82.5500°W)
Time: 02:24:33
(UTC-04:00)

Vanguard 1 - Pass Details

Date: 15 March 2018
Orbit: 650 x 3833 km, 34.3° (Epoch: 20 June)

Event Time Altitude Azimuth Distance (km) Brightness Sun altitude
Rises 08:28:15 0° 224° (SW) 6,507 13.9 8.8°
Reaches altitude 10° 08:32:08 10° 220° (SW) 5,831 13.7 9.5°
Maximum altitude 08:51:29 57° 147° (SSE) 4,179 13.8 13.4°
Drops below altitude 10° 09:13:34 10° 77° (ENE) 6,572 15.5 17.8°
Sets 09:18:14 0° 73° (ENE) 7,341 15.5 18.7°
